Weather in Oktyabrskiy

Russia / Tomsk District     59°29′13″N   79°24′14″E
temp.,
°C
wind,
m/s
gust,
m/s
humid.,
%
clouds,
%
prec.,
mm/h
press.,
hPa
HPBL,
m
22 october, fri
fri2201:00+6ssw3980100 0.0 1004253
04:00+5s41186100 0.0 1002265
07:00+6ssw4987100 0.4 1002817
10:00+5ssw41095100 3.9 1000958
13:00+4sw4108599 4.3 1001899
16:00+4ssw7128095 0.3 10021056
19:00+2sw71295100 0.5 1004823
22:00+2sw7147169 0.1 10071014
23 october, sat
sat2301:00+1ssw71473100 0.1 1007944
04:00+1ssw71485100 0.1 1006968
07:00+1s6149694 0.3 1005849
10:00+1s71496100 0.1 1003705
13:00+2s71696100 0.9 1000852
16:00+2ssw71596100 4.4 998988
19:00+5sw71593100 5.4 998785
22:00+7sw71492100 0.4 998725
24 october, sun
sun2401:00+7sw61391100 1.1 999964
04:00+7wsw61484100 1.1 9991320
07:00+6w8147699 1.3 10011024
10:00+5wsw6128392 0.0 10031054
13:00+6wsw8137450 0.3 10061333
16:00+5wsw71376100 0.1 10081450
19:00+5wsw6137512 0.1 1011877
22:00+4wsw613816 0.0 1013577
25 october, mon
mon2501:00+3sw4991100 0.0 1013290
04:00+2s3892100 0.0 1012227
07:00+3sse51093100 0.6 1007696
10:00+5s61592100 2.2 1002838
13:00+8sw81584100 2.8 10011064
16:00+7wsw91673100 0.1 10031522
19:00+3wnw81385100 0.1 10081011
22:00+2wnw5880100 0.0 1012911
26 october, tue
tue2601:00+2wnw2378100 0.0 1013693
04:00+2s1278100 0.0 1013188
07:00+2se3686100 0.0 1011384
10:00+2sse4992100 0.0 1008472
13:00+2se41198100 1.6 1003497
16:00+4s41196100 2.6 998889
19:00+4w61097100 5.6 996800
22:00+1w71393100 0.3 998925